Sussex, NJ

5:50 PM EDT on September 22, 2017 (GMT -0400)
Sussex

Weather History for KFWN - May, 2014

Change the Weather History Date:

Saturday, May 3, 2014

  Actual Average Record
Temperature  
Mean Temperature 54 °F -  
Max Temperature 68 °F 66 °F 88 °F (2001)
Min Temperature 41 °F 40 °F 24 °F (1966)
Degree Days  
Heating Degree Days 12    
Growing Degree Days 4 (Base 50)    
Moisture  
Dew Point 41 °F    
Average Humidity 63    
Maximum Humidity 89    
Minimum Humidity 36    
Precipitation  
Precipitation 0.00 in - - ()
Sea Level Pressure  
Sea Level Pressure 29.81 in    
Wind  
Wind Speed 4 mph (SW)    
Max Wind Speed 12 mph    
Max Gust Speed 21 mph    
Visibility 10 miles    
Events      
Averages and records for this station are not official NWS values.
T = Trace of Precipitation, MM = Missing Value Source: NWS Daily Summary

Daily Weather History Graph

Daily Weather History Graph

Search for Another Location

Airport or City:

Trip Planner

Search our weather history database for the weather conditions in past years. The results will help you decide how hot, cold, wet, or windy it might be!

Date:

Astronomy

May. 03, 2014 Rise Set
Actual Time 5:53 AM EDT 7:57 PM EDT
Civil Twilight 5:23 AM EDT 8:28 PM EDT
Nautical Twilight 4:46 AM EDT 9:05 PM EDT
Astronomical Twilight 4:06 AM EDT 9:45 PM EDT
Moon 9:20 AM EDT (5/3) No Moon Set
Length of Visible Light 15h 04m
Length of Day
14h 04m
Waxing Crescent, 19% of the Moon is Illuminated
May 3
Waxing Crescent
May 6
First Quarter
May 14
Full
May 21
Last Quarter
May 28
New

Hourly Weather History & Observations

Time (EDT) Temp. Dew Point Humidity Pressure Visibility Wind Dir Wind Speed Gust Speed Precip Events Conditions
12:53 AM 50.0 °F 37.0 °F 61% 29.85 in 10.0 mi Variable 3.5 mph - N/A   Clear
1:53 AM 46.0 °F 37.0 °F 71% 29.85 in 10.0 mi Calm Calm - N/A   Clear
2:53 AM 45.0 °F 37.0 °F 74% 29.86 in 10.0 mi Calm Calm - N/A   Clear
3:53 AM 43.0 °F 37.0 °F 80% 29.86 in 10.0 mi Calm Calm - N/A   Clear
4:53 AM 42.1 °F 37.9 °F 85% 29.87 in 10.0 mi Calm Calm - N/A   Clear
5:53 AM 41.0 °F 36.0 °F 82% 29.87 in 10.0 mi Calm Calm - N/A   Partly Cloudy
6:53 AM 42.1 °F 39.0 °F 89% 29.87 in 10.0 mi Calm Calm - N/A   Partly Cloudy
7:53 AM 48.0 °F 41.0 °F 77% 29.87 in 10.0 mi Calm Calm - N/A   Overcast
8:53 AM 55.9 °F 41.0 °F 57% 29.87 in 10.0 mi SSW 4.6 mph - N/A   Mostly Cloudy
9:53 AM 61.0 °F 41.0 °F 48% 29.86 in 10.0 mi SW 8.1 mph - N/A   Clear
10:53 AM 63.0 °F 39.9 °F 43% 29.84 in 10.0 mi SSW 10.4 mph - N/A   Clear
11:53 AM 66.0 °F 39.9 °F 38% 29.81 in 10.0 mi SSW 11.5 mph 18.4 mph N/A   Clear
12:53 PM 66.9 °F 39.0 °F 36% 29.79 in 10.0 mi Variable 6.9 mph - N/A   Overcast
1:53 PM 66.0 °F 39.0 °F 37% 29.78 in 10.0 mi SW 9.2 mph - N/A   Overcast
2:53 PM 66.9 °F 39.0 °F 36% 29.76 in 10.0 mi SW 8.1 mph 20.7 mph N/A   Overcast
3:53 PM 64.9 °F 37.9 °F 37% 29.75 in 10.0 mi SW 9.2 mph 18.4 mph N/A   Overcast
4:53 PM 66.0 °F 39.0 °F 37% 29.73 in 10.0 mi SW 9.2 mph - N/A   Mostly Cloudy
5:53 PM 62.1 °F 44.1 °F 52% 29.75 in 10.0 mi SW 4.6 mph - N/A   Overcast
6:53 PM 59.0 °F 46.0 °F 62% 29.77 in 10.0 mi Variable 6.9 mph 20.7 mph N/A   Scattered Clouds
7:53 PM 55.9 °F 46.0 °F 69% 29.76 in 10.0 mi South 5.8 mph - N/A   Clear
8:53 PM 53.1 °F 46.0 °F 77% 29.76 in 10.0 mi Calm Calm - N/A   Clear
9:53 PM 53.1 °F 48.0 °F 83% 29.78 in 9.0 mi SW 6.9 mph - N/A   Overcast
10:53 PM 53.1 °F 48.9 °F 86% 29.76 in 10.0 mi SW 3.5 mph - N/A   Overcast
11:53 PM 53.1 °F 48.0 °F 83% 29.76 in 10.0 mi SW 4.6 mph - N/A   Overcast